Wind_Speed
37 37 37 37 36 35 35 35 35 34 33 33 32 32 32 32 31 31 30 30 30 30 30 30 30 29 29 29 28 28 28 28 28 28 28 28 28 28 27 26 26 27 26
40 40 39 39 39 38 38 37 37 36 35 35 35 34 34 34 34 33 33 33 32 32 32 32 32 32 31 31 30 30 30 30 30 30 30 30 30 30 30 29 29 29 29
42 42 41 41 41 40 40 39 39 39 38 38 37 37 36 36 35 35 35 35 35 34 34 34 34 34 34 33 33 33 33 32 31 32 32 32 32 32 32 32 31 31 31
41 41 42 42 42 42 41 41 42 41 41 40 39 39 38 38 37 37 37 37 37 36 36 36 36 36 36 36 36 35 35 34 34 35 35 35 34 34 34 34 34 34 33
44 43 43 43 42 43 43 43 43 43 42 42 42 41 41 40 40 40 39 39 39 38 38 38 38 38 38 38 38 37 37 36 36 36 37 37 37 36 36 36 36 36 35
46 46 44 44 44 43 44 44 44 44 44 44 44 43 43 43 42 42 42 41 41 41 41 40 40 40 40 40 40 40 40 39 39 39 39 39 39 39 38 38 38 37 37
46 46 45 45 45 45 45 46 45 45 46 46 46 46 46 45 45 45 44 44 44 43 43 43 43 42 42 42 42 42 42 42 41 41 41 41 40 40 41 40 40 39 39
45 46 47 46 46 46 46 47 47 47 47 47 47 48 48 48 48 47 47 46 46 46 45 45 44 44 44 43 42 43 43 43 43 43 43 43 43 42 43 42 42 42 41
46 47 47 47 47 46 46 47 47 47 48 48 49 49 49 49 49 49 49 49 48 48 48 47 47 47 46 46 46 45 45 45 45 45 45 45 44 45 45 45 45 45 44
48 48 48 48 48 48 48 48 48 48 48 48 49 50 51 51 50 50 50 51 51 50 50 50 50 49 49 49 49 48 48 47 47 46 46 46 46 47 47 47 47 47 46
49 49 50 50 50 50 50 50 50 50 50 50 50 51 52 52 52 53 52 52 52 52 52 52 52 51 51 51 51 51 50 50 49 49 48 47 48 48 49 49 49 49 48
49 50 50 51 51 51 51 51 52 53 53 52 52 53 53 53 53 54 53 53 54 54 54 54 54 53 53 52 53 53 52 52 52 52 51 50 49 50 51 51 51 51 51
49 50 51 51 52 52 52 53 54 54 54 53 52 52 53 53 54 55 55 54 54 55 55 55 55 55 55 54 54 54 54 54 54 54 54 53 52 52 53 53 53 53 53
49 50 51 51 52 52 53 53 54 54 54 54 53 53 53 53 54 55 55 55 55 55 56 56 56 56 56 56 55 55 55 54 54 54 54 54 54 54 54 54 54 54 55
50 51 51 51 52 52 52 52 53 53 54 54 54 53 53 53 54 55 55 56 57 56 56 55 56 56 57 56 56 55 55 55 55 55 55 54 54 54 54 55 55 55 55
50 51 52 51 52 52 52 52 52 52 54 55 54 54 55 54 54 54 55 55 56 56 56 55 57 57 57 57 57 56 56 57 56 56 56 56 55 55 55 56 56 56 56
51 51 52 53 52 53 53 53 53 53 54 54 54 54 55 55 54 54 55 55 55 55 56 55 56 58 58 58 59 58 58 58 57 57 57 57 56 56 57 57 57 57 58
51 51 52 52 53 53 54 54 55 55 54 54 54 54 54 54 54 54 55 56 55 56 56 56 57 58 59 59 59 59 58 58 58 58 57 58 58 58 58 58 58 58 58
51 52 53 53 54 54 54 55 55 55 54 54 55 55 54 54 54 55 56 56 56 56 56 57 57 58 59 60 60 59 58 59 59 59 59 59 59 59 59 59 59 59 59
50 51 52 53 54 55 55 55 56 56 56 56 55 56 56 56 56 56 56 57 57 57 57 58 58 58 59 59 59 59 59 59 60 60 60 60 60 60 60 60 59 59 59
50 50 51 52 53 54 54 55 55 56 56 56 56 56 57 57 57 57 57 57 57 57 57 58 58 58 59 59 59 59 59 60 60 60 60 60 60 60 60 60 59 59 59
49 50 51 52 52 53 54 54 55 56 57 57 56 56 56 57 58 58 57 57 57 57 57 57 57 58 59 59 59 60 60 61 60 60 61 60 60 60 60 60 59 58 58
48 49 49 50 52 52 54 55 56 56 57 57 57 57 57 57 58 58 58 58 58 58 58 58 58 58 57 58 59 59 60 60 60 61 60 59 60 60 59 59 59 59 59
48 49 49 50 51 51 52 54 55 55 56 56 57 57 58 58 58 59 59 58 58 57 57 58 57 57 56 57 58 58 59 59 60 60 59 58 58 58 58 58 58 58 58
47 48 48 49 50 50 51 52 52 53 54 54 55 55 56 57 57 58 58 58 58 58 57 57 56 56 56 57 57 58 58 58 58 58 57 57 56 56 56 55 55 56 56
47 47 48 48 49 50 51 51 51 53 53 53 54 54 54 55 56 56 57 57 57 57 57 57 57 57 56 56 57 57 57 57 57 56 55 55 54 54 54 53 53 54 54
Wind_Direction
251 251 251 251 251 250 250 250 250 251 250 249 248 247 246 247 247 247 247 246 246 247 248 249 250 250 250 251 254 255 256 258 258 258 259 260 261 262 262 264 264 265 266
251 251 251 251 251 251 251 251 250 251 250 249 248 248 247 247 248 248 249 248 248 249 249 249 250 252 253 253 255 257 258 259 259 259 260 261 261 262 263 264 265 266 266
250 250 250 251 251 251 251 252 252 252 251 250 249 249 249 249 249 249 250 251 252 253 253 253 253 253 254 255 255 256 257 258 258 258 260 261 262 263 263 264 265 265 266
250 250 250 250 251 251 250 251 251 252 251 250 250 250 250 250 250 251 251 252 253 253 254 255 255 255 255 255 256 256 257 258 258 259 260 262 263 263 263 264 264 264 265
250 250 250 250 250 250 250 250 250 250 251 251 251 251 251 251 251 252 252 253 253 254 255 256 256 256 255 255 256 257 258 260 260 260 262 263 263 263 264 264 264 264 265
250 250 250 250 250 251 250 249 250 250 250 251 251 251 252 251 252 252 253 253 254 254 255 256 257 257 257 257 258 258 259 261 261 261 262 263 264 264 264 264 264 265 265
250 250 251 251 251 251 250 249 249 250 250 251 252 252 252 252 253 253 253 253 254 254 255 256 257 258 259 258 258 259 260 260 261 262 262 263 264 264 264 263 263 264 265
251 251 251 251 251 251 251 250 249 250 251 251 252 253 253 253 253 253 254 254 254 254 255 256 257 258 258 259 259 260 261 262 263 264 263 263 263 263 263 263 263 263 264
251 252 251 251 251 251 252 252 251 251 252 252 253 254 254 254 254 254 254 254 254 255 255 256 257 258 259 259 260 261 262 263 264 264 264 263 263 263 264 263 264 263 263
251 251 251 252 252 252 253 253 253 253 253 254 254 255 255 255 254 254 254 255 255 256 256 257 258 259 260 260 260 261 262 263 264 264 264 264 263 263 263 264 264 264 264
253 252 252 253 253 253 253 253 254 254 255 255 255 255 256 256 255 255 255 255 256 256 257 257 258 259 260 261 261 261 262 262 263 263 265 265 264 263 263 264 264 264 265
253 253 253 254 254 254 254 254 254 255 255 255 255 255 256 256 256 256 255 255 255 256 257 258 258 259 260 260 261 261 262 262 263 264 264 264 264 265 265 265 264 264 265
252 253 253 254 255 255 256 255 254 255 255 255 255 256 256 257 257 257 256 255 255 256 257 257 258 259 259 260 261 262 262 262 263 264 264 264 264 264 265 265 265 265 265
253 253 254 255 255 255 256 256 256 256 256 256 256 256 257 258 258 258 258 257 256 256 256 257 258 259 259 260 261 261 262 263 264 264 264 264 264 264 265 266 266 265 265
254 254 254 254 255 255 256 256 256 256 256 257 256 257 257 258 259 259 258 258 258 257 256 256 257 258 259 259 260 260 261 262 264 264 264 264 264 265 265 266 266 266 266
254 254 254 255 256 256 256 256 256 256 257 257 256 257 257 257 258 259 259 259 258 258 257 256 257 257 258 259 259 260 261 262 263 264 264 264 264 265 266 267 267 267 267
254 255 256 256 256 257 258 257 257 257 257 257 256 257 257 257 259 259 259 259 260 259 259 258 258 257 258 259 259 259 261 263 263 263 264 264 265 265 266 266 267 268 268
255 255 256 256 257 257 258 258 257 257 257 257 257 257 257 258 259 259 258 259 259 259 260 259 259 258 258 259 260 260 261 262 262 263 264 264 265 266 267 267 268 268 268
256 256 257 257 257 257 257 258 257 257 257 258 257 257 258 259 259 259 259 259 259 259 260 260 260 260 260 260 260 260 261 262 262 262 263 264 265 266 267 267 268 268 269
257 257 258 258 258 257 257 256 256 257 257 257 258 258 258 259 259 259 259 260 260 260 260 260 260 260 261 260 260 261 261 262 262 262 263 264 265 267 267 268 268 269 269
259 258 258 258 258 257 257 256 256 256 257 257 258 258 259 259 259 259 259 260 259 260 260 261 261 261 260 261 261 260 261 262 262 262 263 264 265 267 267 267 267 268 269
260 259 258 258 258 258 257 256 257 257 257 257 258 258 258 259 258 258 259 260 260 260 260 261 262 262 262 262 261 260 261 261 261 263 263 264 265 266 266 267 267 267 268
261 260 259 259 259 258 257 257 256 257 257 258 259 259 258 258 259 258 259 260 260 260 261 261 262 263 262 262 261 261 261 261 261 262 262 263 265 266 266 267 267 267 268
261 261 260 259 259 259 258 257 257 257 257 258 259 259 258 258 259 259 259 260 260 260 260 261 263 263 262 262 262 262 261 261 261 262 263 264 264 265 266 266 266 267 268
262 262 261 260 260 260 260 259 258 258 258 259 259 259 260 259 259 259 259 259 259 259 260 261 262 262 262 261 262 261 262 261 261 262 262 263 263 264 264 265 266 267 268
263 263 262 261 261 261 260 260 260 259 259 259 259 259 260 259 258 259 259 259 259 259 259 260 261 262 261 261 261 262 262 262 261 261 261 262 263 263 263 264 266 267 267
Height
5773 5775 5776 5778 5780 5781 5783 5784 5786 5788 5789 5791 5793 5794 5796 5798 5799 5801 5802 5804 5806 5807 5808 5810 5811 5813 5814 5815 5816 5817 5819 5820 5821 5821 5822 5823 5824 5825 5825 5826 5826 5827 5827
5763 5765 5767 5769 5771 5773 5774 5776 5778 5780 5782 5784 5786 5787 5789 5791 5792 5794 5796 5797 5799 5800 5802 5803 5805 5806 5807 5809 5810 5811 5812 5813 5814 5815 5816 5816 5817 5818 5819 5820 5820 5820 5821
5754 5756 5758 5760 5762 5764 5766 5767 5769 5771 5774 5776 5778 5780 5781 5783 5785 5786 5788 5790 5791 5793 5795 5796 5797 5799 5800 5801 5803 5804 5805 5805 5806 5807 5808 5809 5810 5811 5812 5813 5813 5814 5814
5744 5746 5748 5750 5752 5754 5756 5758 5760 5762 5764 5767 5769 5771 5773 5775 5777 5778 5780 5782 5783 5785 5787 5788 5790 5791 5792 5793 5794 5796 5797 5798 5799 5800 5801 5802 5802 5803 5804 5805 5806 5806 5807
5733 5735 5737 5739 5741 5743 5746 5748 5750 5752 5755 5757 5759 5761 5763 5765 5767 5770 5771 5773 5775 5776 5778 5780 5781 5782 5783 5785 5786 5787 5789 5790 5791 5792 5793 5793 5794 5795 5796 5797 5797 5798 5799
5722 5724 5726 5728 5730 5733 5735 5737 5739 5742 5744 5747 5749 5751 5753 5756 5758 5760 5762 5764 5765 5767 5769 5770 5772 5773 5775 5776 5777 5778 5780 5781 5782 5783 5784 5784 5785 5786 5787 5788 5788 5789 5790
5711 5713 5715 5717 5719 5722 5724 5726 5728 5730 5733 5735 5738 5740 5743 5745 5747 5749 5751 5753 5755 5757 5759 5760 5762 5764 5765 5766 5767 5769 5770 5771 5772 5773 5774 5775 5776 5777 5778 5778 5779 5780 5780
5699 5701 5703 5706 5708 5710 5712 5715 5717 5719 5721 5724 5726 5728 5731 5734 5736 5738 5740 5742 5744 5746 5748 5750 5751 5753 5755 5756 5757 5758 5759 5760 5762 5763 5764 5765 5766 5767 5767 5768 5769 5769 5770
5687 5689 5691 5693 5696 5698 5700 5702 5705 5708 5710 5712 5714 5717 5719 5722 5724 5726 5728 5730 5732 5734 5736 5738 5740 5741 5743 5745 5746 5747 5748 5750 5751 5752 5753 5754 5754 5755 5756 5757 5758 5759 5759
5675 5677 5679 5681 5683 5685 5688 5690 5693 5695 5698 5700 5702 5704 5707 5709 5711 5714 5716 5718 5720 5722 5723 5725 5727 5729 5731 5733 5734 5735 5737 5738 5739 5740 5741 5742 5743 5744 5745 5745 5746 5747 5748
5662 5664 5667 5668 5671 5673 5675 5678 5680 5683 5685 5687 5689 5691 5693 5695 5697 5700 5703 5705 5707 5708 5710 5712 5714 5716 5718 5720 5721 5723 5724 5726 5727 5727 5728 5729 5730 5731 5732 5733 5734 5735 5735
5650 5652 5654 5656 5658 5660 5662 5664 5667 5669 5671 5674 5676 5678 5680 5681 5684 5686 5689 5691 5693 5695 5696 5698 5701 5703 5705 5706 5708 5709 5711 5712 5713 5714 5715 5716 5717 5718 5719 5720 5720 5721 5722
5637 5639 5641 5643 5645 5647 5648 5651 5653 5655 5657 5659 5662 5664 5666 5668 5669 5671 5674 5676 5678 5680 5682 5684 5686 5689 5691 5692 5693 5695 5696 5698 5699 5700 5701 5703 5704 5704 5705 5706 5706 5707 5708
5624 5626 5628 5630 5632 5633 5635 5637 5639 5641 5643 5645 5648 5650 5652 5654 5655 5656 5659 5661 5663 5666 5668 5670 5672 5674 5676 5677 5679 5680 5682 5683 5684 5685 5687 5688 5689 5690 5691 5691 5692 5692 5693
5610 5612 5614 5616 5618 5619 5621 5622 5624 5627 5629 5631 5634 5635 5637 5639 5640 5642 5644 5646 5648 5651 5653 5655 5657 5659 5660 5662 5664 5666 5667 5669 5670 5671 5672 5673 5674 5675 5675 5676 5676 5677 5677
5595 5598 5600 5602 5604 5605 5607 5609 5611 5613 5615 5617 5619 5621 5623 5625 5626 5627 5629 5630 5632 5635 5638 5640 5641 5643 5645 5647 5649 5651 5652 5654 5655 5656 5657 5658 5659 5659 5660 5660 5661 5661 5661
5581 5583 5585 5587 5589 5591 5593 5595 5597 5599 5601 5602 5605 5606 5608 5610 5611 5613 5614 5616 5617 5619 5622 5625 5625 5627 5629 5631 5633 5635 5636 5638 5639 5641 5641 5642 5643 5644 5644 5644 5645 5645 5645
5566 5568 5570 5572 5574 5576 5578 5580 5582 5584 5586 5588 5590 5591 5593 5594 5596 5598 5600 5601 5603 5604 5606 5609 5610 5611 5612 5614 5617 5619 5620 5622 5624 5625 5626 5627 5627 5628 5628 5628 5628 5628 5628
5551 5553 5554 5556 5559 5561 5563 5565 5567 5569 5571 5573 5575 5576 5578 5579 5581 5583 5584 5586 5588 5589 5590 5592 5594 5595 5596 5598 5600 5602 5604 5606 5608 5609 5610 5611 5611 5611 5611 5611 5611 5611 5611
5536 5537 5539 5541 5542 5544 5546 5549 5551 5553 5555 5557 5559 5561 5562 5564 5566 5567 5569 5570 5572 5573 5575 5576 5578 5579 5580 5581 5583 5586 5588 5589 5591 5593 5594 5594 5595 5595 5595 5595 5595 5594 5593
5520 5522 5523 5525 5526 5528 5530 5532 5534 5536 5539 5541 5543 5545 5546 5548 5550 5551 5553 5555 5556 5557 5559 5560 5562 5563 5565 5566 5568 5570 5571 5573 5575 5575 5577 5578 5579 5579 5577 5577 5577 5576 5576
5505 5506 5507 5509 5510 5512 5514 5515 5517 5520 5522 5524 5526 5528 5530 5531 5533 5535 5537 5538 5540 5541 5543 5545 5546 5547 5549 5550 5551 5552 5554 5556 5559 5561 5561 5561 5561 5562 5561 5561 5560 5559 5559
5490 5491 5492 5493 5494 5496 5497 5499 5500 5503 5505 5507 5509 5511 5513 5515 5517 5518 5520 5522 5523 5524 5526 5528 5530 5531 5533 5534 5535 5536 5537 5539 5542 5543 5543 5545 5545 5545 5545 5544 5544 5543 5543
5475 5476 5477 5477 5478 5480 5481 5482 5483 5485 5488 5490 5492 5494 5496 5498 5500 5501 5503 5505 5506 5508 5510 5511 5514 5515 5516 5517 5518 5519 5520 5522 5524 5525 5526 5528 5529 5529 5529 5528 5528 5527 5527
5461 5461 5462 5462 5463 5464 5465 5466 5467 5469 5471 5473 5475 5477 5479 5481 5483 5484 5486 5488 5490 5491 5492 5494 5496 5497 5498 5500 5500 5502 5503 5505 5507 5509 5509 5511 5512 5512 5513 5513 5512 5512 5511
5446 5446 5447 5448 5448 5449 5450 5451 5451 5453 5455 5457 5459 5460 5462 5464 5465 5466 5468 5471 5473 5475 5476 5478 5479 5481 5482 5483 5484 5485 5487 5488 5490 5493 5493 5494 5496 5496 5498 5499 5498 5497 5497